This is the latest recevied weather packets stored in our database for station/object WD7OO. If no packets are shown the sender has not sent any weather packets the latest 10 day(s).
| Time | Temp. | Humidity | Pressure | Rain* | Wind** | Luminosity | Snow |
|---|---|---|---|---|---|---|---|
| 1777508185 | 6.67° C | 93% | 1014.4 hPa | 0 mm | - | 4 W/m² | - |
| 1777507881 | 6.67° C | 93% | 1014.1 hPa | 0 mm | - | 6 W/m² | - |
| 1777507578 | 7.22° C | 93% | 1014.3 hPa | 0 mm | - | 8 W/m² | - |
| 1777507275 | 7.22° C | 92% | 1014.3 hPa | 0 mm | - | 10 W/m² | - |
| 1777506973 | 7.22° C | 92% | 1014 hPa | 0 mm | - | 11 W/m² | - |
| 1777506670 | 7.22° C | 92% | 1014 hPa | 0 mm | - | 18 W/m² | - |
| 1777506366 | 7.22° C | 92% | 1013.9 hPa | 0 mm | - | 27 W/m² | - |
| 1777506062 | 7.22° C | 92% | 1014 hPa | 0 mm | - | 24 W/m² | - |
| 1777505757 | 7.78° C | 91% | 1014 hPa | 0 mm | - | 24 W/m² | - |
| 1777505455 | 7.78° C | 91% | 1014 hPa | 0 mm | - | 29 W/m² | - |
| 1777505151 | 7.78° C | 91% | 1014.1 hPa | 0 mm | - | 24 W/m² | - |
| 1777504848 | 7.78° C | 90% | 1013.8 hPa | 0 mm | - | 30 W/m² | - |
| 1777504545 | 8.33° C | 90% | 1013.8 hPa | 0 mm | - | 41 W/m² | - |
| 1777504241 | 8.33° C | 90% | 1014.1 hPa | 0 mm | - | 50 W/m² | - |
| 1777503937 | 8.33° C | 90% | 1013.8 hPa | 0 mm | - | 46 W/m² | - |
| 1777503633 | 8.33° C | 89% | 1013.8 hPa | 0 mm | - | 70 W/m² | - |
| 1777503330 | 8.33° C | 89% | 1013.9 hPa | 0 mm | - | 93 W/m² | - |
| 1777503027 | 8.33° C | 89% | 1013.7 hPa | 0 mm | - | 95 W/m² | - |
| 1777502724 | 8.89° C | 88% | 1013.8 hPa | 0 mm | - | 113 W/m² | - |
| 1777502421 | 8.89° C | 88% | 1013.9 hPa | 0 mm | - | 134 W/m² | - |
| 1777502118 | 8.89° C | 88% | 1013.7 hPa | 0 mm | - | 125 W/m² | - |
| 1777501816 | 8.89° C | 88% | 1013.8 hPa | 0 mm | - | 136 W/m² | - |
| 1777501512 | 8.89° C | 88% | 1013.7 hPa | 0 mm | - | 158 W/m² | - |
| 1777501209 | 8.89° C | 89% | 1013.6 hPa | 0 mm | - | 134 W/m² | - |
| 1777500907 | 8.89° C | 88% | 1013.5 hPa | 0 mm | - | 123 W/m² | - |
* Rain latest hour (hover to see other rain measurements)
** Current wind speed in m/s (hover to see current wind gust speed)